| time (UTC) | temp F | wind direction | speed MPH | gust MPH | rain 1hr in | rain 24hr in | rain mn in | humidity % | barometer mb |
| 20260507130356 | 46 | 90 | 3.0 | 4.0 | 0.00 | 0.00 | 0.00 | 78 | 1036.0 |
| 20260507125856 | 47 | 90 | 5.0 | 5.0 | 0.00 | 0.00 | 0.00 | 79 | 1036.0 |
| 20260507125356 | 48 | 45 | 4.0 | 5.0 | 0.00 | 0.00 | 0.00 | 82 | 1036.0 |
| 20260507124856 | 46 | 68 | 3.0 | 4.0 | 0.00 | 0.00 | 0.00 | 88 | 1036.0 |
| 20260507124357 | 43 | 45 | 3.0 | 6.0 | 0.00 | 0.00 | 0.00 | 90 | 1036.0 |
| 20260507123857 | 42 | 23 | 3.0 | 5.0 | 0.00 | 0.00 | 0.00 | 93 | 1036.0 |
| 20260507123356 | 42 | 45 | 4.0 | 5.0 | 0.00 | 0.00 | 0.00 | 96 | 1036.0 |
| 20260507122856 | 42 | 45 | 4.0 | 4.0 | 0.00 | 0.00 | 0.00 | 99 | 1036.0 |
| 20260507122356 | 41 | 23 | 2.0 | 5.0 | 0.00 | 0.00 | 0.00 | 99 | 1036.0 |
| 20260507121856 | 41 | 23 | 5.0 | 5.0 | 0.00 | 0.00 | 0.00 | 99 | 1036.0 |
| 20260507121356 | 41 | 45 | 5.0 | 6.0 | 0.00 | 0.00 | 0.00 | 99 | 1036.0 |
| 20260507120856 | 41 | 0 | 6.0 | 6.0 | 0.00 | 0.00 | 0.00 | 99 | 1036.0 |
| 20260507120358 | 41 | 23 | 3.0 | 5.0 | 0.00 | 0.00 | 0.00 | 99 | 1036.0 |
| 20260507115856 | 41 | 23 | 2.0 | 4.0 | 0.00 | 0.00 | 0.00 | 99 | 1036.0 |
| 20260507115356 | 41 | 23 | 2.0 | 3.0 | 0.00 | 0.00 | 0.00 | 99 | 1036.0 |
| 20260507114856 | 41 | 293 | 3.0 | 4.0 | 0.00 | 0.00 | 0.00 | 99 | 1036.0 |
| 20260507114356 | 41 | 45 | 2.0 | 2.0 | 0.00 | 0.00 | 0.00 | 99 | 1036.0 |
| 20260507113857 | 41 | 315 | 4.0 | 4.0 | 0.00 | 0.00 | 0.00 | 99 | 1036.0 |
| 20260507113356 | 42 | 315 | 2.0 | 2.0 | 0.00 | 0.00 | 0.00 | 99 | 1036.0 |
| 20260507112856 | 42 | 338 | 2.0 | 2.0 | 0.00 | 0.00 | 0.00 | 99 | 1036.0 |
| 20260507112356 | 41 | 23 | 1.0 | 2.0 | 0.00 | 0.00 | 0.00 | 99 | 1036.0 |
| 20260507111856 | 41 | 270 | 0.0 | 2.0 | 0.00 | 0.00 | 0.00 | 99 | 1036.0 |
| 20260507111356 | 41 | 248 | 0.0 | 0.0 | 0.00 | 0.00 | 0.00 | 99 | 1035.0 |
| 20260507110857 | 41 | 203 | 0.0 | 1.0 | 0.00 | 0.00 | 0.00 | 99 | 1035.0 |
| 20260507110356 | 41 | 270 | 0.0 | 2.0 | 0.00 | 0.00 | 0.00 | 99 | 1035.0 |
| 20260507105856 | 40 | 270 | 0.0 | 0.0 | 0.00 | 0.00 | 0.00 | 99 | 1035.0 |
| 20260507105356 | 40 | 180 | 0.0 | 1.0 | 0.00 | 0.00 | 0.00 | 99 | 1035.0 |
| 20260507104856 | 40 | 113 | 1.0 | 1.0 | 0.00 | 0.00 | 0.00 | 99 | 1035.0 |
| 20260507104357 | 40 | 180 | 0.0 | 0.0 | 0.00 | 0.00 | 0.00 | 99 | 1035.0 |
| 20260507103857 | 40 | 180 | 0.0 | 1.0 | 0.00 | 0.00 | 0.00 | 99 | 1035.0 |
| 20260507103358 | 40 | 113 | 1.0 | 1.0 | 0.00 | 0.00 | 0.00 | 99 | 1035.0 |
| 20260507102856 | 39 | 113 | 2.0 | 2.0 | 0.00 | 0.00 | 0.00 | 99 | 1035.0 |
| 20260507102356 | 39 | 135 | 0.0 | 1.0 | 0.00 | 0.00 | 0.00 | 99 | 1035.0 |
| 20260507101856 | 39 | 113 | 1.0 | 1.0 | 0.00 | 0.00 | 0.00 | 99 | 1035.0 |
| 20260507101359 | 38 | 90 | 0.0 | 0.0 | 0.00 | 0.00 | 0.00 | 99 | 1035.0 |
| 20260507100856 | 38 | 225 | 0.0 | 0.0 | 0.00 | 0.00 | 0.00 | 99 | 1035.0 |
| 20260507100356 | 38 | 158 | 0.0 | 0.0 | 0.00 | 0.00 | 0.00 | 99 | 1035.0 |
| 20260507095856 | 38 | 158 | 0.0 | 0.0 | 0.00 | 0.00 | 0.00 | 99 | 1035.0 |
| 20260507095404 | 37 | 45 | 0.0 | 0.0 | 0.00 | 0.00 | 0.00 | 99 | 1035.0 |
| 20260507094856 | 37 | 158 | 0.0 | 0.0 | 0.00 | 0.00 | 0.00 | 99 | 1035.0 |
| 20260507094358 | 37 | 158 | 0.0 | 0.0 | 0.00 | 0.00 | 0.00 | 99 | 1035.0 |
| 20260507093856 | 37 | 293 | 0.0 | 1.0 | 0.00 | 0.00 | 0.00 | 99 | 1035.0 |
| 20260507093356 | 37 | 23 | 1.0 | 1.0 | 0.00 | 0.00 | 0.00 | 99 | 1035.0 |
| 20260507092856 | 37 | 315 | 0.0 | 0.0 | 0.00 | 0.00 | 0.00 | 99 | 1035.0 |
| 20260507092356 | 37 | 203 | 0.0 | 0.0 | 0.00 | 0.00 | 0.00 | 99 | 1035.0 |
| 20260507091856 | 38 | 203 | 0.0 | 0.0 | 0.00 | 0.00 | 0.00 | 99 | 1035.0 |
| 20260507091356 | 38 | 203 | 0.0 | 0.0 | 0.00 | 0.00 | 0.00 | 99 | 1035.0 |
| 20260507090856 | 38 | 225 | 0.0 | 0.0 | 0.00 | 0.00 | 0.00 | 99 | 1035.0 |
| 20260507090356 | 39 | 203 | 0.0 | 0.0 | 0.00 | 0.00 | 0.00 | 99 | 1035.0 |
| 20260507085856 | 39 | 180 | 0.0 | 0.0 | 0.00 | 0.00 | 0.00 | 99 | 1035.0 |
| 20260507085356 | 39 | 180 | 0.0 | 1.0 | 0.00 | 0.00 | 0.00 | 99 | 1035.0 |
| 20260507084857 | 39 | 203 | 0.0 | 1.0 | 0.00 | 0.00 | 0.00 | 99 | 1035.0 |
| 20260507084357 | 39 | 225 | 1.0 | 3.0 | 0.00 | 0.00 | 0.00 | 99 | 1035.0 |
| 20260507083856 | 39 | 203 | 2.0 | 2.0 | 0.00 | 0.00 | 0.00 | 99 | 1035.0 |
| 20260507083356 | 38 | 203 | 1.0 | 2.0 | 0.00 | 0.00 | 0.00 | 99 | 1035.0 |
| 20260507082856 | 38 | 248 | 1.0 | 2.0 | 0.00 | 0.00 | 0.00 | 99 | 1035.0 |
| 20260507082356 | 38 | 203 | 2.0 | 2.0 | 0.00 | 0.00 | 0.00 | 99 | 1035.0 |
| 20260507081856 | 38 | 225 | 0.0 | 1.0 | 0.00 | 0.00 | 0.00 | 99 | 1035.0 |
| 20260507081356 | 38 | 225 | 0.0 | 0.0 | 0.00 | 0.00 | 0.00 | 99 | 1035.0 |
| 20260507080857 | 38 | 225 | 0.0 | 0.0 | 0.00 | 0.00 | 0.00 | 99 | 1035.0 |
| 20260507080356 | 38 | 180 | 0.0 | 0.0 | 0.00 | 0.00 | 0.00 | 99 | 1035.0 |
| 20260507075856 | 38 | 180 | 0.0 | 0.0 | 0.00 | 0.00 | 0.00 | 99 | 1035.0 |
| 20260507075357 | 39 | 203 | 0.0 | 0.0 | 0.00 | 0.00 | 0.00 | 99 | 1035.0 |
| 20260507074857 | 39 | 203 | 0.0 | 0.0 | 0.00 | 0.00 | 0.00 | 99 | 1035.0 |
| 20260507074356 | 39 | 203 | 0.0 | 1.0 | 0.00 | 0.00 | 0.00 | 99 | 1035.0 |
| 20260507073856 | 39 | 180 | 2.0 | 2.0 | 0.00 | 0.00 | 0.00 | 99 | 1035.0 |
| 20260507073357 | 38 | 203 | 1.0 | 1.0 | 0.00 | 0.00 | 0.00 | 99 | 1035.0 |
| 20260507072856 | 38 | 203 | 0.0 | 0.0 | 0.00 | 0.00 | 0.00 | 99 | 1035.0 |
| 20260507072357 | 39 | 203 | 0.0 | 0.0 | 0.00 | 0.00 | 0.00 | 99 | 1035.0 |
| 20260507071856 | 39 | 270 | 0.0 | 0.0 | 0.00 | 0.00 | 0.00 | 99 | 1035.0 |
| 20260507071357 | 39 | 45 | 0.0 | 0.0 | 0.00 | 0.00 | 0.00 | 99 | 1035.0 |
| 20260507070856 | 39 | 248 | 0.0 | 0.0 | 0.00 | 0.00 | 0.00 | 99 | 1035.0 |
| 20260507070356 | 39 | 113 | 0.0 | 1.0 | 0.00 | 0.00 | 0.00 | 99 | 1035.0 |
| 20260507065856 | 40 | 135 | 1.0 | 1.0 | 0.00 | 0.00 | 0.00 | 99 | 1035.0 |
| 20260507065356 | 40 | 113 | 2.0 | 2.0 | 0.00 | 0.00 | 0.00 | 99 | 1035.0 |
| 20260507064857 | 40 | 113 | 0.0 | 1.0 | 0.00 | 0.00 | 0.00 | 99 | 1035.0 |
| 20260507064356 | 41 | 135 | 0.0 | 1.0 | 0.00 | 0.00 | 0.00 | 99 | 1035.0 |
| 20260507063857 | 41 | 158 | 1.0 | 1.0 | 0.00 | 0.00 | 0.00 | 99 | 1035.0 |
| 20260507063356 | 41 | 180 | 0.0 | 0.0 | 0.00 | 0.00 | 0.00 | 99 | 1035.0 |
| 20260507062856 | 41 | 203 | 0.0 | 0.0 | 0.00 | 0.00 | 0.00 | 99 | 1035.0 |
| 20260507062356 | 41 | 225 | 0.0 | 1.0 | 0.00 | 0.00 | 0.00 | 99 | 1035.0 |
| 20260507061856 | 41 | 225 | 0.0 | 0.0 | 0.00 | 0.00 | 0.00 | 98 | 1035.0 |
| 20260507061356 | 42 | 203 | 0.0 | 0.0 | 0.00 | 0.00 | 0.00 | 98 | 1035.0 |
| 20260507060903 | 42 | 203 | 0.0 | 0.0 | 0.00 | 0.00 | 0.00 | 98 | 1035.0 |
| 20260507060357 | 42 | 203 | 0.0 | 0.0 | 0.00 | 0.00 | 0.00 | 97 | 1035.0 |
| 20260507055857 | 42 | 135 | 1.0 | 1.0 | 0.00 | 0.00 | 0.00 | 97 | 1035.0 |
| 20260507055356 | 42 | 113 | 1.0 | 1.0 | 0.00 | 0.00 | 0.00 | 97 | 1035.0 |
| 20260507054856 | 42 | 113 | 0.0 | 0.0 | 0.00 | 0.00 | 0.00 | 97 | 1036.0 |
| 20260507054357 | 42 | 113 | 0.0 | 1.0 | 0.00 | 0.00 | 0.00 | 97 | 1035.0 |
| 20260507053857 | 42 | 113 | 1.0 | 1.0 | 0.00 | 0.00 | 0.00 | 97 | 1035.0 |
| 20260507053357 | 43 | 135 | 0.0 | 1.0 | 0.00 | 0.00 | 0.00 | 97 | 1036.0 |
| 20260507052856 | 43 | 180 | 0.0 | 1.0 | 0.00 | 0.00 | 0.00 | 96 | 1036.0 |
| 20260507052357 | 43 | 203 | 1.0 | 1.0 | 0.00 | 0.00 | 0.00 | 96 | 1036.0 |
| 20260507051856 | 43 | 248 | 1.0 | 2.0 | 0.00 | 0.00 | 0.00 | 95 | 1036.0 |
| 20260507051356 | 43 | 158 | 0.0 | 0.0 | 0.00 | 0.00 | 0.00 | 95 | 1036.0 |
| 20260507050857 | 43 | 158 | 0.0 | 1.0 | 0.00 | 0.00 | 0.00 | 95 | 1036.0 |
| 20260507050356 | 43 | 113 | 0.0 | 1.0 | 0.00 | 0.00 | 0.00 | 95 | 1036.0 |
| 20260507045856 | 43 | 203 | 0.0 | 0.0 | 0.00 | 0.00 | 0.00 | 95 | 1036.0 |
| 20260507045356 | 44 | 225 | 0.0 | 1.0 | 0.00 | 0.00 | 0.00 | 95 | 1036.0 |
| 20260507044856 | 44 | 225 | 1.0 | 2.0 | 0.00 | 0.00 | 0.00 | 95 | 1036.0 |
| 20260507044356 | 44 | 203 | 0.0 | 1.0 | 0.00 | 0.00 | 0.00 | 95 | 1036.0 |
| 20260507043856 | 44 | 203 | 1.0 | 2.0 | 0.00 | 0.00 | 0.00 | 95 | 1036.0 |
| 20260507043356 | 44 | 225 | 1.0 | 3.0 | 0.00 | 0.00 | 0.00 | 95 | 1036.0 |
| 20260507042856 | 44 | 203 | 0.0 | 2.0 | 0.00 | 0.00 | 0.00 | 95 | 1036.0 |
| 20260507042356 | 44 | 203 | 1.0 | 3.0 | 0.00 | 0.00 | 0.00 | 95 | 1036.0 |
| 20260507041856 | 44 | 248 | 2.0 | 3.0 | 0.00 | 0.00 | 0.00 | 95 | 1036.0 |
| 20260507041356 | 44 | 203 | 1.0 | 2.0 | 0.00 | 0.00 | 0.00 | 95 | 1036.0 |
| 20260507040856 | 44 | 270 | 1.0 | 2.0 | 0.00 | 0.00 | 0.00 | 95 | 1036.0 |
| 20260507040356 | 44 | 248 | 1.0 | 4.0 | 0.00 | 0.00 | 0.00 | 95 | 1036.0 |
| 20260507035857 | 44 | 225 | 2.0 | 4.0 | 0.00 | 0.00 | 0.64 | 95 | 1036.0 |
| 20260507035356 | 44 | 225 | 4.0 | 4.0 | 0.00 | 0.00 | 0.64 | 95 | 1036.0 |
| 20260507034856 | 44 | 293 | 1.0 | 5.0 | 0.00 | 0.00 | 0.64 | 95 | 1036.0 |
| 20260507034357 | 44 | 225 | 3.0 | 4.0 | 0.00 | 0.00 | 0.64 | 95 | 1036.0 |
| 20260507033857 | 44 | 248 | 2.0 | 4.0 | 0.00 | 0.00 | 0.64 | 95 | 1036.0 |
| 20260507033356 | 44 | 248 | 2.0 | 4.0 | 0.00 | 0.00 | 0.64 | 95 | 1036.0 |
| 20260507032857 | 44 | 225 | 3.0 | 5.0 | 0.00 | 0.00 | 0.64 | 95 | 1036.0 |
| 20260507032356 | 44 | 225 | 1.0 | 4.0 | 0.00 | 0.00 | 0.64 | 95 | 1036.0 |
| 20260507031856 | 44 | 203 | 2.0 | 2.0 | 0.00 | 0.00 | 0.64 | 95 | 1036.0 |
| 20260507031356 | 44 | 225 | 3.0 | 3.0 | 0.00 | 0.00 | 0.64 | 95 | 1036.0 |
| 20260507030856 | 44 | 203 | 2.0 | 3.0 | 0.00 | 0.00 | 0.64 | 95 | 1036.0 |
| 20260507030358 | 44 | 270 | 3.0 | 3.0 | 0.00 | 0.00 | 0.64 | 95 | 1036.0 |
| 20260507025856 | 44 | 225 | 1.0 | 3.0 | 0.00 | 0.00 | 0.64 | 95 | 1036.0 |
| 20260507025356 | 44 | 270 | 1.0 | 3.0 | 0.00 | 0.00 | 0.64 | 95 | 1036.0 |
| 20260507024856 | 44 | 270 | 1.0 | 2.0 | 0.00 | 0.00 | 0.64 | 95 | 1036.0 |
| 20260507024357 | 44 | 270 | 2.0 | 3.0 | 0.00 | 0.00 | 0.64 | 95 | 1036.0 |
| 20260507023856 | 44 | 203 | 1.0 | 2.0 | 0.00 | 0.00 | 0.64 | 95 | 1036.0 |
| 20260507022856 | 44 | 203 | 2.0 | 2.0 | 0.00 | 0.00 | 0.64 | 95 | 1036.0 |
| 20260507022356 | 44 | 248 | 2.0 | 2.0 | 0.00 | 0.00 | 0.64 | 95 | 1036.0 |
| 20260507021857 | 44 | 248 | 0.0 | 2.0 | 0.00 | 0.00 | 0.64 | 95 | 1036.0 |
| 20260507021356 | 44 | 248 | 3.0 | 3.0 | 0.00 | 0.00 | 0.64 | 95 | 1036.0 |
| 20260507020858 | 44 | 248 | 0.0 | 1.0 | 0.00 | 0.00 | 0.64 | 95 | 1036.0 |
| 20260507020356 | 44 | 270 | 1.0 | 3.0 | 0.00 | 0.00 | 0.64 | 95 | 1036.0 |
| 20260507015856 | 44 | 270 | 2.0 | 2.0 | 0.00 | 0.00 | 0.64 | 95 | 1036.0 |
| 20260507015357 | 44 | 270 | 1.0 | 2.0 | 0.00 | 0.00 | 0.64 | 95 | 1036.0 |
| 20260507014856 | 44 | 248 | 1.0 | 2.0 | 0.00 | 0.00 | 0.64 | 95 | 1036.0 |
| 20260507014356 | 44 | 248 | 1.0 | 2.0 | 0.00 | 0.00 | 0.64 | 95 | 1036.0 |
| 20260507013856 | 44 | 248 | 2.0 | 2.0 | 0.00 | 0.00 | 0.64 | 95 | 1036.0 |
| 20260507013356 | 44 | 270 | 1.0 | 2.0 | 0.00 | 0.00 | 0.64 | 94 | 1036.0 |
| 20260507012857 | 44 | 248 | 1.0 | 2.0 | 0.00 | 0.00 | 0.64 | 94 | 1036.0 |
| 20260507012356 | 43 | 270 | 0.0 | 2.0 | 0.00 | 0.00 | 0.64 | 94 | 1036.0 |
| 20260507011856 | 44 | 248 | 0.0 | 0.0 | 0.00 | 0.00 | 0.64 | 94 | 1036.0 |
| 20260507011356 | 44 | 315 | 0.0 | 0.0 | 0.00 | 0.00 | 0.64 | 94 | 1036.0 |
| 20260507010859 | 44 | 248 | 0.0 | 2.0 | 0.00 | 0.00 | 0.64 | 94 | 1036.0 |
| 20260507010356 | 44 | 293 | 1.0 | 1.0 | 0.00 | 0.00 | 0.64 | 94 | 1036.0 |
| 20260507005857 | 43 | 293 | 1.0 | 1.0 | 0.00 | 0.00 | 0.64 | 94 | 1036.0 |
| 20260507005356 | 43 | 270 | 0.0 | 2.0 | 0.00 | 0.00 | 0.64 | 94 | 1036.0 |
| 20260507004856 | 44 | 248 | 2.0 | 2.0 | 0.00 | 0.00 | 0.64 | 94 | 1036.0 |
| 20260507004356 | 44 | 270 | 1.0 | 1.0 | 0.00 | 0.00 | 0.64 | 94 | 1036.0 |
| 20260507003856 | 44 | 270 | 0.0 | 1.0 | 0.00 | 0.00 | 0.64 | 94 | 1035.0 |
| 20260507003357 | 44 | 270 | 1.0 | 2.0 | 0.00 | 0.00 | 0.64 | 94 | 1035.0 |
| 20260507002857 | 44 | 293 | 1.0 | 2.0 | 0.00 | 0.00 | 0.64 | 94 | 1035.0 |
| 20260507002356 | 44 | 270 | 2.0 | 2.0 | 0.00 | 0.00 | 0.64 | 94 | 1035.0 |
| 20260507001856 | 44 | 315 | 1.0 | 1.0 | 0.00 | 0.00 | 0.64 | 94 | 1035.0 |
| 20260507001357 | 44 | 315 | 1.0 | 2.0 | 0.00 | 0.00 | 0.64 | 94 | 1035.0 |
| 20260507000856 | 44 | 293 | 3.0 | 3.0 | 0.00 | 0.00 | 0.64 | 94 | 1035.0 |
| 20260507000358 | 44 | 0 | 1.0 | 2.0 | 0.00 | 0.00 | 0.64 | 94 | 1035.0 |
| 20260506235856 | 44 | 315 | 2.0 | 3.0 | 0.00 | 0.00 | 0.64 | 94 | 1035.0 |
| 20260506235356 | 44 | 315 | 2.0 | 4.0 | 0.00 | 0.00 | 0.64 | 94 | 1035.0 |
| 20260506234856 | 45 | 23 | 2.0 | 3.0 | 0.00 | 0.00 | 0.64 | 94 | 1035.0 |
| 20260506234356 | 45 | 0 | 1.0 | 3.0 | 0.00 | 0.00 | 0.64 | 94 | 1035.0 |
| 20260506233856 | 45 | 293 | 2.0 | 3.0 | 0.00 | 0.00 | 0.64 | 94 | 1035.0 |
| 20260506233357 | 45 | 338 | 2.0 | 3.0 | 0.00 | 0.00 | 0.64 | 94 | 1035.0 |
| 20260506232856 | 45 | 293 | 2.0 | 4.0 | 0.00 | 0.00 | 0.64 | 95 | 1035.0 |
| 20260506232356 | 45 | 293 | 2.0 | 2.0 | 0.00 | 0.00 | 0.64 | 95 | 1035.0 |
| 20260506231856 | 45 | 270 | 1.0 | 3.0 | 0.00 | 0.00 | 0.64 | 95 | 1035.0 |
| 20260506231357 | 45 | 338 | 2.0 | 4.0 | 0.00 | 0.00 | 0.64 | 95 | 1035.0 |
| 20260506230856 | 44 | 270 | 2.0 | 2.0 | 0.00 | 0.00 | 0.64 | 95 | 1035.0 |
| 20260506230356 | 44 | 270 | 4.0 | 4.0 | 0.00 | 0.00 | 0.64 | 95 | 1035.0 |
| 20260506225856 | 45 | 270 | 2.0 | 4.0 | 0.00 | 0.00 | 0.64 | 95 | 1035.0 |
| 20260506225357 | 44 | 338 | 2.0 | 3.0 | 0.00 | 0.00 | 0.64 | 95 | 1035.0 |
| 20260506224857 | 44 | 270 | 3.0 | 4.0 | 0.00 | 0.00 | 0.64 | 95 | 1035.0 |
| 20260506224356 | 44 | 338 | 2.0 | 4.0 | 0.00 | 0.00 | 0.64 | 95 | 1035.0 |
| 20260506223856 | 44 | 270 | 4.0 | 6.0 | 0.00 | 0.00 | 0.64 | 95 | 1034.0 |
| 20260506223356 | 44 | 270 | 3.0 | 6.0 | 0.00 | 0.00 | 0.64 | 95 | 1034.0 |
| 20260506222857 | 45 | 315 | 4.0 | 6.0 | 0.00 | 0.00 | 0.64 | 96 | 1034.0 |
| 20260506222358 | 45 | 270 | 4.0 | 6.0 | 0.00 | 0.00 | 0.64 | 96 | 1034.0 |
| 20260506221856 | 45 | 293 | 5.0 | 8.0 | 0.00 | 0.00 | 0.64 | 96 | 1034.0 |
| 20260506221358 | 45 | 293 | 4.0 | 7.0 | 0.00 | 0.00 | 0.64 | 97 | 1034.0 |
| 20260506220856 | 45 | 293 | 4.0 | 6.0 | 0.00 | 0.00 | 0.64 | 97 | 1034.0 |
| 20260506220357 | 44 | 315 | 4.0 | 8.0 | 0.00 | 0.00 | 0.64 | 98 | 1034.0 |
| 20260506215858 | 45 | 338 | 6.0 | 8.0 | 0.00 | 0.00 | 0.64 | 98 | 1034.0 |
| 20260506215356 | 44 | 293 | 5.0 | 7.0 | 0.00 | 0.00 | 0.64 | 98 | 1033.0 |
| 20260506214856 | 44 | 315 | 6.0 | 7.0 | 0.00 | 0.00 | 0.64 | 97 | 1033.0 |
| 20260506214358 | 44 | 270 | 5.0 | 9.0 | 0.00 | 0.00 | 0.64 | 97 | 1033.0 |
| 20260506213856 | 43 | 315 | 8.0 | 9.0 | 0.00 | 0.00 | 0.64 | 97 | 1033.0 |
| 20260506213356 | 44 | 270 | 8.0 | 12.0 | 0.00 | 0.00 | 0.64 | 97 | 1033.0 |
| 20260506212856 | 44 | 338 | 10.0 | 15.0 | 0.00 | 0.00 | 0.64 | 96 | 1033.0 |
| 20260506212356 | 44 | 270 | 13.0 | 15.0 | 0.00 | 0.00 | 0.64 | 96 | 1033.0 |
| 20260506211856 | 44 | 270 | 9.0 | 16.0 | 0.00 | 0.00 | 0.64 | 94 | 1033.0 |
| 20260506211356 | 45 | 270 | 9.0 | 14.0 | 0.00 | 0.00 | 0.64 | 93 | 1033.0 |
| 20260506210856 | 46 | 270 | 10.0 | 15.0 | 0.00 | 0.00 | 0.64 | 92 | 1033.0 |
| 20260506210356 | 47 | 293 | 9.0 | 14.0 | 0.00 | 0.00 | 0.64 | 90 | 1033.0 |
| 20260506205856 | 49 | 315 | 12.0 | 12.0 | 0.00 | 0.00 | 0.64 | 88 | 1033.0 |
| 20260506205356 | 50 | 225 | 8.0 | 12.0 | 0.00 | 0.00 | 0.64 | 87 | 1032.0 |
| 20260506204856 | 51 | 248 | 5.0 | 8.0 | 0.00 | 0.00 | 0.64 | 87 | 1032.0 |
| 20260506204357 | 50 | 270 | 7.0 | 15.0 | 0.00 | 0.00 | 0.64 | 86 | 1032.0 |
| 20260506203857 | 51 | 225 | 10.0 | 17.0 | 0.00 | 0.00 | 0.64 | 85 | 1032.0 |
| 20260506203356 | 51 | 270 | 16.0 | 17.0 | 0.00 | 0.00 | 0.64 | 84 | 1032.0 |
| 20260506202857 | 51 | 270 | 8.0 | 15.0 | 0.00 | 0.00 | 0.64 | 82 | 1032.0 |
| 20260506202357 | 52 | 270 | 14.0 | 15.0 | 0.00 | 0.00 | 0.64 | 81 | 1032.0 |
| 20260506201857 | 52 | 270 | 11.0 | 13.0 | 0.00 | 0.00 | 0.64 | 81 | 1032.0 |
| 20260506201356 | 53 | 225 | 10.0 | 14.0 | 0.00 | 0.00 | 0.64 | 81 | 1032.0 |
| 20260506200856 | 53 | 225 | 12.0 | 13.0 | 0.00 | 0.00 | 0.64 | 81 | 1032.0 |
| 20260506200358 | 53 | 248 | 8.0 | 11.0 | 0.00 | 0.00 | 0.64 | 82 | 1032.0 |
| 20260506195856 | 53 | 270 | 7.0 | 8.0 | 0.00 | 0.00 | 0.64 | 82 | 1032.0 |
| 20260506195356 | 53 | 270 | 9.0 | 10.0 | 0.00 | 0.00 | 0.64 | 82 | 1032.0 |
| 20260506194856 | 54 | 270 | 9.0 | 9.0 | 0.00 | 0.00 | 0.64 | 83 | 1032.0 |
| 20260506194357 | 52 | 248 | 5.0 | 12.0 | 0.00 | 0.00 | 0.64 | 85 | 1032.0 |
| 20260506193858 | 52 | 225 | 6.0 | 9.0 | 0.00 | 0.00 | 0.64 | 86 | 1032.0 |
| 20260506193356 | 52 | 203 | 4.0 | 6.0 | 0.00 | 0.00 | 0.64 | 86 | 1032.0 |
| 20260506192857 | 51 | 248 | 6.0 | 7.0 | 0.00 | 0.00 | 0.64 | 87 | 1032.0 |
| 20260506191858 | 52 | 203 | 2.0 | 3.0 | 0.00 | 0.00 | 0.64 | 87 | 1032.0 |
| 20260506191357 | 51 | 225 | 2.0 | 4.0 | 0.00 | 0.00 | 0.64 | 86 | 1032.0 |
| 20260506190856 | 52 | 180 | 2.0 | 3.0 | 0.00 | 0.00 | 0.64 | 85 | 1032.0 |
| 20260506190357 | 52 | 180 | 4.0 | 4.0 | 0.00 | 0.00 | 0.64 | 85 | 1032.0 |
| 20260506185859 | 53 | 203 | 2.0 | 3.0 | 0.00 | 0.00 | 0.64 | 85 | 1032.0 |
| 20260506185356 | 53 | 158 | 1.0 | 2.0 | 0.00 | 0.00 | 0.64 | 85 | 1032.0 |
| 20260506184856 | 53 | 68 | 1.0 | 2.0 | 0.00 | 0.00 | 0.64 | 86 | 1032.0 |
| 20260506184356 | 53 | 23 | 1.0 | 3.0 | 0.00 | 0.00 | 0.64 | 86 | 1032.0 |
| 20260506183857 | 53 | 158 | 2.0 | 2.0 | 0.00 | 0.00 | 0.64 | 86 | 1032.0 |
| 20260506183356 | 52 | 180 | 2.0 | 2.0 | 0.00 | 0.00 | 0.64 | 85 | 1032.0 |
| 20260506182856 | 53 | 180 | 1.0 | 2.0 | 0.00 | 0.00 | 0.64 | 84 | 1032.0 |
| 20260506182357 | 53 | 158 | 0.0 | 0.0 | 0.00 | 0.00 | 0.64 | 84 | 1032.0 |
| 20260506181857 | 54 | 180 | 0.0 | 1.0 | 0.00 | 0.00 | 0.64 | 84 | 1032.0 |
| 20260506181357 | 53 | 225 | 1.0 | 3.0 | 0.00 | 0.00 | 0.64 | 84 | 1032.0 |
| 20260506180856 | 54 | 270 | 2.0 | 3.0 | 0.00 | 0.00 | 0.64 | 85 | 1032.0 |
| 20260506180357 | 54 | 0 | 1.0 | 2.0 | 0.00 | 0.00 | 0.64 | 85 | 1032.0 |
| 20260506175858 | 54 | 248 | 1.0 | 2.0 | 0.00 | 0.00 | 0.64 | 86 | 1032.0 |
| 20260506175358 | 54 | 135 | 2.0 | 2.0 | 0.00 | 0.00 | 0.64 | 87 | 1032.0 |
| 20260506174857 | 54 | 203 | 0.0 | 2.0 | 0.00 | 0.00 | 0.64 | 90 | 1032.0 |
| 20260506174357 | 54 | 225 | 1.0 | 2.0 | 0.00 | 0.00 | 0.64 | 91 | 1032.0 |
| 20260506173856 | 53 | 225 | 0.0 | 1.0 | 0.00 | 0.00 | 0.64 | 92 | 1032.0 |
| 20260506173358 | 53 | 68 | 2.0 | 2.0 | 0.00 | 0.00 | 0.64 | 93 | 1032.0 |
| 20260506172857 | 52 | 270 | 1.0 | 3.0 | 0.00 | 0.00 | 0.64 | 94 | 1032.0 |
| 20260506172357 | 52 | 45 | 1.0 | 1.0 | 0.00 | 0.00 | 0.64 | 96 | 1032.0 |
| 20260506171856 | 51 | 158 | 0.0 | 2.0 | 0.00 | 0.00 | 0.64 | 97 | 1032.0 |
| 20260506171356 | 51 | 45 | 3.0 | 3.0 | 0.00 | 0.00 | 0.64 | 97 | 1032.0 |
| 20260506170857 | 51 | 68 | 2.0 | 2.0 | 0.00 | 0.00 | 0.64 | 97 | 1032.0 |
| 20260506170357 | 50 | 293 | 1.0 | 2.0 | 0.00 | 0.00 | 0.64 | 97 | 1032.0 |
| 20260506165856 | 50 | 293 | 2.0 | 2.0 | 0.00 | 0.00 | 0.64 | 98 | 1032.0 |
| 20260506165356 | 50 | 45 | 3.0 | 4.0 | 0.00 | 0.00 | 0.64 | 98 | 1032.0 |
| 20260506164859 | 50 | 68 | 1.0 | 2.0 | 0.00 | 0.00 | 0.64 | 98 | 1032.0 |
| 20260506164356 | 49 | 338 | 2.0 | 4.0 | 0.00 | 0.00 | 0.64 | 98 | 1032.0 |
| 20260506163857 | 49 | 45 | 3.0 | 3.0 | 0.00 | 0.00 | 0.64 | 98 | 1032.0 |
| 20260506163356 | 48 | 0 | 2.0 | 4.0 | 0.00 | 0.00 | 0.64 | 97 | 1032.0 |
| 20260506162857 | 49 | 293 | 2.0 | 2.0 | 0.00 | 0.00 | 0.64 | 97 | 1032.0 |
| 20260506162356 | 48 | 270 | 3.0 | 4.0 | 0.00 | 0.00 | 0.64 | 96 | 1032.0 |
| 20260506161856 | 49 | 315 | 2.0 | 3.0 | 0.00 | 0.00 | 0.64 | 96 | 1032.0 |
| 20260506161357 | 49 | 248 | 0.0 | 3.0 | 0.00 | 0.00 | 0.64 | 96 | 1032.0 |
| 20260506160856 | 50 | 293 | 2.0 | 2.0 | 0.00 | 0.00 | 0.64 | 96 | 1032.0 |
| 20260506160359 | 50 | 90 | 0.0 | 3.0 | 0.00 | 0.00 | 0.64 | 96 | 1032.0 |
| 20260506155858 | 50 | 135 | 2.0 | 3.0 | 0.00 | 0.00 | 0.64 | 97 | 1032.0 |
| 20260506155357 | 50 | 113 | 0.0 | 1.0 | 0.00 | 0.00 | 0.64 | 97 | 1032.0 |
| 20260506154856 | 49 | 90 | 2.0 | 3.0 | 0.00 | 0.00 | 0.64 | 97 | 1032.0 |
| 20260506154356 | 50 | 90 | 2.0 | 3.0 | 0.00 | 0.00 | 0.64 | 98 | 1032.0 |
| 20260506153858 | 50 | 68 | 2.0 | 2.0 | 0.00 | 0.00 | 0.64 | 98 | 1032.0 |
| 20260506153356 | 49 | 113 | 2.0 | 2.0 | 0.00 | 0.00 | 0.64 | 98 | 1032.0 |
| 20260506152857 | 49 | 23 | 4.0 | 4.0 | 0.00 | 0.00 | 0.64 | 98 | 1032.0 |
| 20260506152357 | 49 | 90 | 4.0 | 4.0 | 0.00 | 0.00 | 0.64 | 99 | 1032.0 |
| 20260506151857 | 49 | 113 | 2.0 | 4.0 | 0.00 | 0.00 | 0.64 | 99 | 1032.0 |
| 20260506151356 | 48 | 113 | 3.0 | 5.0 | 0.01 | 0.00 | 0.64 | 99 | 1032.0 |
| 20260506150410 | 48 | 90 | 3.0 | 5.0 | 0.01 | 0.00 | 0.64 | 99 | 1032.0 |
| 20260506145856 | 48 | 113 | 3.0 | 5.0 | 0.01 | 0.00 | 0.64 | 99 | 1032.0 |
| 20260506145356 | 48 | 23 | 2.0 | 4.0 | 0.02 | 0.00 | 0.64 | 99 | 1032.0 |
| 20260506144857 | 48 | 90 | 4.0 | 6.0 | 0.02 | 0.00 | 0.64 | 99 | 1032.0 |
| 20260506144357 | 47 | 113 | 3.0 | 5.0 | 0.02 | 0.00 | 0.64 | 99 | 1031.0 |
| 20260506143856 | 47 | 68 | 3.0 | 4.0 | 0.02 | 0.00 | 0.64 | 99 | 1031.0 |
| 20260506143358 | 47 | 45 | 2.0 | 3.0 | 0.02 | 0.00 | 0.64 | 99 | 1031.0 |
| 20260506142856 | 47 | 113 | 2.0 | 4.0 | 0.02 | 0.00 | 0.64 | 99 | 1032.0 |
| 20260506142356 | 46 | 45 | 2.0 | 3.0 | 0.02 | 0.00 | 0.64 | 99 | 1032.0 |
| 20260506141857 | 46 | 90 | 2.0 | 2.0 | 0.01 | 0.00 | 0.63 | 99 | 1032.0 |
| 20260506141358 | 46 | 90 | 4.0 | 4.0 | 0.01 | 0.00 | 0.63 | 99 | 1032.0 |
| 20260506140857 | 46 | 90 | 2.0 | 3.0 | 0.01 | 0.00 | 0.63 | 99 | 1031.0 |
| 20260506140357 | 46 | 113 | 4.0 | 4.0 | 0.01 | 0.00 | 0.63 | 99 | 1031.0 |
| 20260506135856 | 46 | 68 | 4.0 | 4.0 | 0.00 | 0.00 | 0.62 | 99 | 1031.0 |
| 20260506135357 | 46 | 90 | 2.0 | 4.0 | 0.00 | 0.00 | 0.62 | 99 | 1031.0 |
| 20260506134857 | 46 | 45 | 3.0 | 4.0 | 0.00 | 0.00 | 0.62 | 99 | 1031.0 |
| 20260506134400 | 46 | 23 | 5.0 | 5.0 | 0.00 | 0.00 | 0.62 | 99 | 1031.0 |
| 20260506133856 | 46 | 90 | 5.0 | 6.0 | 0.00 | 0.00 | 0.62 | 99 | 1031.0 |
| 20260506133357 | 46 | 68 | 2.0 | 4.0 | 0.01 | 0.00 | 0.62 | 99 | 1031.0 |
| 20260506132856 | 45 | 45 | 4.0 | 5.0 | 0.01 | 0.00 | 0.62 | 99 | 1031.0 |
| 20260506132357 | 45 | 113 | 3.0 | 6.0 | 0.01 | 0.00 | 0.62 | 99 | 1031.0 |
| 20260506131857 | 45 | 113 | 4.0 | 6.0 | 0.01 | 0.00 | 0.62 | 99 | 1031.0 |
| 20260506131358 | 45 | 113 | 3.0 | 4.0 | 0.02 | 0.00 | 0.62 | 99 | 1031.0 |
| 20260506130856 | 45 | 68 | 3.0 | 4.0 | 0.02 | 0.00 | 0.62 | 99 | 1031.0 |